Home   Weather   Conakry   Past weeks

Flag for Guinea Past Weather in Conakry, Guinea — Yesterday and Last 2 Weeks

Now
82 °F

Fog.


Feels Like: 89 °F
Forecast: 80 / 85 °F
Wind: No wind

Location: Conakry / Gbessia

Current Time: Apr 28, 2017 at 2:57:59 am

Latest Report: Apr 28, 2017 at 1:00 am


Visibility: 2 mi

Pressure: 29.92 "Hg

Humidity: 79%

Dew Point: 75 °F

Location of ConakryLocation

Past Weather in Conakry — Graph

°F

Conakry Temperature Yesterday

Maximum temperature yesterday: 91 °F (at 1:00 pm)
Minimum temperature yesterday: 81 °F (at 2:00 am)
Average temperature yesterday: 85 °F

High & Low Weather Summary for the Past Weeks

 TemperatureHumidityPressure
High93 °F (Apr 17, 1:00 pm)94% (Apr 13, 2:00 am)30.50 "Hg (Apr 13, 2:00 am)
Low77 °F (Apr 16, 6:00 am)30% (Apr 17, 2:00 pm)29.74 "Hg (Apr 16, 5:00 pm)
Average84 °F69%29.84 "Hg
* Reported Apr 13 1:00 am — Apr 28 1:00 am, Conakry, Weather by CustomWeather, © 2017

Note: Actual official high and low records may vary slightly from our data, if they occured in-between our weather recording intervals... More about our weather records

Advertising

Conakry Weather History for the Previous 24 Hours

Scroll right to see more
 ConditionsComfort  
Time TempWeatherWind HumidityBarometerVisibility
1:00 am
Fri, Apr 28
82 °FFog.No wind79%29.92 "Hg2 mi
12:00 am82 °FHaze.No wind79%29.95 "Hg3 mi
11:00 pm
Thu, Apr 27
82 °FPassing clouds.No wind79%29.92 "Hg3 mi
10:00 pm84 °FPassing clouds.No wind74%29.92 "Hg3 mi
9:00 pm84 °FPassing clouds.5 mph84%29.89 "HgN/A
8:00 pm84 °FPassing clouds.9 mph84%29.86 "HgN/A
7:00 pm84 °FPassing clouds.9 mph79%29.86 "HgN/A
6:00 pm86 °FPassing clouds.12 mph75%29.83 "HgN/A
5:00 pm88 °FPassing clouds.12 mph70%29.83 "HgN/A
4:00 pm90 °FPassing clouds.12 mph67%29.83 "HgN/A
3:00 pm91 °FPassing clouds.12 mph63%29.83 "HgN/A
2:00 pm91 °FPassing clouds.9 mph63%29.86 "HgN/A
1:00 pm91 °FPassing clouds.12 mph59%29.89 "HgN/A
12:00 pm88 °FScattered clouds.5 mph62%29.92 "HgN/A
11:00 am88 °FScattered clouds.7 mph62%29.92 "HgN/A
10:00 am86 °FScattered clouds.7 mph70%29.92 "HgN/A
9:00 am84 °FBroken clouds.5 mph74%29.92 "HgN/A
8:00 am84 °FBroken clouds.No wind79%29.89 "HgN/A
7:00 am81 °FScattered clouds.No wind84%29.86 "HgN/A
6:00 am81 °FPassing clouds.2 mph84%29.86 "Hg3 mi
4:50 am81 °FPassing clouds.2 mph84%29.83 "Hg3 mi
4:00 am81 °FHaze.No wind84%29.83 "Hg3 mi
3:00 am81 °FHaze.No wind79%29.83 "Hg3 mi
2:00 am81 °FHaze.No wind79%29.86 "Hg3 mi
Weather by CustomWeather, © 2017

See weather overviewHow to use our weather pages